ACA424 CYYZ-CYUL

Flight info

Callsign ACA424
Flight time N/A
Altitude 39000
Route DEDKI5 MIGLO HABBS7
Aircraft B77W/H-SDE1E2E3FGHIJ2J3J4J5M1RWXY/LB1D1

Departure

Time 2026-05-08 01:24
Airport Toronto Pearson International Airport (CYYZ)

Arrival

Time N/A
Airport Montreal / Pierre Elliott Trudeau International Airport (CYUL)
Time Latitude Longitude Altitude Speed Heading
2026-05-08 00:50 43.67720 -79.60975 574 ft 0 kts 245°
2026-05-08 01:08 43.67724 -79.60964 574 ft 4 kts 245°
2026-05-08 01:09 43.67735 -79.60930 575 ft 4 kts 244°
2026-05-08 01:09 43.67748 -79.60892 575 ft 4 kts 255°
2026-05-08 01:09 43.67750 -79.60869 575 ft 4 kts 288°
2026-05-08 01:09 43.67737 -79.60839 575 ft 4 kts 317°
2026-05-08 01:10 43.67732 -79.60834 575 ft 0 kts 320°
2026-05-08 01:12 43.67733 -79.60834 575 ft 0 kts 320°
2026-05-08 01:13 43.67758 -79.60844 575 ft 8 kts
2026-05-08 01:13 43.67761 -79.60745 571 ft 17 kts 129°
2026-05-08 01:13 43.67699 -79.60678 574 ft 12 kts 151°
2026-05-08 01:13 43.67627 -79.60629 570 ft 12 kts 189°
2026-05-08 01:14 43.67558 -79.60706 575 ft 13 kts 227°
2026-05-08 01:14 43.67476 -79.60824 573 ft 23 kts 226°
2026-05-08 01:14 43.67388 -79.60979 574 ft 15 kts 234°
2026-05-08 01:14 43.67323 -79.61102 570 ft 18 kts 234°
2026-05-08 01:15 43.67269 -79.61201 572 ft 7 kts 235°
2026-05-08 01:15 43.67276 -79.61266 575 ft 9 kts 317°
2026-05-08 01:15 43.67392 -79.61410 573 ft 35 kts 316°
2026-05-08 01:15 43.67520 -79.61580 573 ft 25 kts 316°
2026-05-08 01:16 43.67630 -79.61723 575 ft 17 kts 316°
2026-05-08 01:16 43.67717 -79.61838 570 ft 18 kts 316°
2026-05-08 01:16 43.67811 -79.61959 574 ft 19 kts 317°
2026-05-08 01:16 43.67919 -79.62071 570 ft 20 kts 334°
2026-05-08 01:17 43.68035 -79.62182 569 ft 20 kts 317°
2026-05-08 01:17 43.68135 -79.62317 572 ft 20 kts 316°
2026-05-08 01:17 43.68241 -79.62449 574 ft 20 kts 319°
2026-05-08 01:17 43.68347 -79.62578 572 ft 20 kts 318°
2026-05-08 01:18 43.68452 -79.62711 574 ft 20 kts 317°
2026-05-08 01:18 43.68555 -79.62848 574 ft 21 kts 316°
2026-05-08 01:18 43.68660 -79.62985 571 ft 21 kts 318°
2026-05-08 01:18 43.68766 -79.63120 574 ft 21 kts 317°
2026-05-08 01:19 43.68869 -79.63259 571 ft 21 kts 316°
2026-05-08 01:19 43.68974 -79.63394 572 ft 21 kts 318°
2026-05-08 01:19 43.69064 -79.63508 574 ft 14 kts 317°
2026-05-08 01:19 43.69112 -79.63511 573 ft 7 kts 43°
2026-05-08 01:20 43.69150 -79.63479 578 ft 6 kts 36°
2026-05-08 01:20 43.69172 -79.63454 579 ft 12 kts 38°
2026-05-08 01:20 43.69241 -79.63421 573 ft 10 kts
2026-05-08 01:20 43.69311 -79.63420 571 ft 6 kts
2026-05-08 01:21 43.69324 -79.63420 571 ft 0 kts 352°
2026-05-08 01:22 43.69326 -79.63420 571 ft 2 kts 351°
2026-05-08 01:23 43.69371 -79.63446 570 ft 12 kts 328°
2026-05-08 01:23 43.69392 -79.63531 574 ft 0 kts 232°
2026-05-08 01:24 43.69350 -79.63597 570 ft 29 kts 226°
2026-05-08 01:24 43.69023 -79.64074 576 ft 113 kts 227°
2026-05-08 01:24 43.68327 -79.65081 632 ft 176 kts 225°
2026-05-08 01:24 43.67473 -79.66283 1482 ft 173 kts 225°
2026-05-08 01:25 43.66575 -79.67375 2482 ft 171 kts 222°
2026-05-08 01:25 43.65800 -79.68630 3222 ft 172 kts 237°
2026-05-08 01:25 43.65170 -79.70028 4030 ft 174 kts 240°
2026-05-08 01:25 43.64536 -79.71552 4493 ft 196 kts 240°
2026-05-08 01:26 43.63501 -79.72971 4728 ft 232 kts 205°
2026-05-08 01:26 43.61808 -79.73266 5177 ft 262 kts 171°
2026-05-08 01:26 43.60106 -79.72257 6042 ft 274 kts 146°
2026-05-08 01:26 43.58664 -79.70482 6869 ft 283 kts 136°
2026-05-08 01:27 43.57295 -79.68488 7802 ft 288 kts 135°
2026-05-08 01:27 43.55921 -79.66508 8785 ft 292 kts 136°
2026-05-08 01:27 43.54484 -79.64493 9721 ft 297 kts 137°
2026-05-08 01:27 43.53009 -79.62458 10535 ft 306 kts 138°
2026-05-08 01:28 43.51517 -79.60203 10834 ft 335 kts 126°
2026-05-08 01:28 43.50601 -79.57087 10968 ft 367 kts 102°
2026-05-08 01:28 43.50458 -79.53558 11000 ft 373 kts 84°
2026-05-08 01:28 43.51085 -79.50095 11007 ft 373 kts 65°
2026-05-08 01:29 43.52335 -79.47021 11021 ft 365 kts 53°
2026-05-08 01:29 43.53795 -79.44174 11007 ft 364 kts 51°
2026-05-08 01:29 43.55307 -79.41349 11010 ft 370 kts 50°
2026-05-08 01:29 43.56832 -79.38526 11017 ft 373 kts 50°
2026-05-08 01:30 43.58389 -79.35669 10990 ft 373 kts 50°
2026-05-08 01:30 43.59957 -79.32813 10740 ft 374 kts 50°
2026-05-08 01:30 43.61527 -79.29967 10492 ft 372 kts 50°
2026-05-08 01:30 43.63090 -79.27139 10186 ft 369 kts 50°
2026-05-08 01:31 43.64643 -79.24334 9857 ft 366 kts 50°
2026-05-08 01:31 43.66180 -79.21563 9485 ft 362 kts 50°
2026-05-08 01:31 43.67729 -79.18859 9070 ft 353 kts 44°
2026-05-08 01:31 43.69636 -79.16822 8632 ft 341 kts 22°
2026-05-08 01:32 43.71806 -79.15957 8151 ft 311 kts 360°
2026-05-08 01:32 43.73891 -79.15989 7705 ft 294 kts 352°
2026-05-08 01:32 43.75928 -79.16241 7311 ft 300 kts 350°
2026-05-08 01:32 43.78004 -79.16549 6883 ft 300 kts 350°
2026-05-08 01:33 43.80075 -79.16873 6449 ft 300 kts 350°
2026-05-08 01:33 43.82147 -79.17213 6006 ft 299 kts 350°
2026-05-08 01:33 43.84195 -79.17564 5599 ft 288 kts 350°
2026-05-08 01:33 43.86091 -79.17892 5394 ft 261 kts 349°
2026-05-08 01:34 43.87821 -79.18191 5260 ft 244 kts 349°
2026-05-08 01:34 43.89518 -79.18490 5213 ft 245 kts 348°
2026-05-08 01:34 43.91083 -79.19217 5104 ft 234 kts 323°
2026-05-08 01:34 43.92354 -79.20526 5034 ft 229 kts 319°
2026-05-08 01:35 43.93595 -79.21840 4997 ft 219 kts 320°
2026-05-08 01:35 43.94785 -79.23093 4986 ft 214 kts 320°
2026-05-08 01:35 43.95969 -79.24351 4997 ft 213 kts 316°
2026-05-08 01:35 43.96978 -79.25818 4993 ft 208 kts 300°
2026-05-08 01:36 43.97426 -79.27672 4994 ft 205 kts 268°
2026-05-08 01:36 43.96996 -79.29529 5010 ft 207 kts 234°
2026-05-08 01:36 43.95948 -79.30912 5037 ft 211 kts 221°
2026-05-08 01:36 43.94763 -79.32156 5014 ft 216 kts 218°
2026-05-08 01:37 43.93508 -79.33308 5013 ft 216 kts 216°
2026-05-08 01:37 43.92253 -79.34426 5050 ft 214 kts 216°
2026-05-08 01:37 43.90991 -79.35556 5003 ft 217 kts 216°
2026-05-08 01:37 43.89738 -79.36683 4993 ft 211 kts 216°
2026-05-08 01:38 43.88539 -79.37757 4998 ft 206 kts 216°
2026-05-08 01:38 43.87340 -79.38832 4998 ft 202 kts 216°
2026-05-08 01:38 43.86189 -79.39860 4987 ft 191 kts 216°
2026-05-08 01:38 43.85103 -79.40848 4994 ft 184 kts 221°
2026-05-08 01:39 43.84157 -79.42044 4912 ft 187 kts 227°
2026-05-08 01:39 43.83243 -79.43353 4642 ft 189 kts 228°
2026-05-08 01:39 43.82346 -79.44660 4375 ft 186 kts 228°
2026-05-08 01:39 43.81476 -79.45929 4132 ft 178 kts 228°
2026-05-08 01:40 43.80638 -79.47154 3877 ft 172 kts 228°
2026-05-08 01:40 43.79815 -79.48355 3654 ft 173 kts 228°
2026-05-08 01:40 43.78983 -79.49570 3413 ft 174 kts 228°
2026-05-08 01:40 43.78162 -79.50766 3174 ft 173 kts 228°
2026-05-08 01:41 43.77336 -79.51971 2932 ft 173 kts 228°
2026-05-08 01:41 43.76508 -79.53178 2686 ft 172 kts 228°
2026-05-08 01:41 43.75694 -79.54363 2472 ft 165 kts 228°
2026-05-08 01:41 43.74933 -79.55470 2219 ft 151 kts 228°
2026-05-08 01:42 43.74250 -79.56465 2061 ft 139 kts 229°
2026-05-08 01:42 43.73569 -79.57459 1850 ft 144 kts 229°
2026-05-08 01:42 43.72888 -79.58453 1673 ft 145 kts 229°
2026-05-08 01:42 43.72193 -79.59459 1457 ft 144 kts 228°
2026-05-08 01:43 43.71505 -79.60462 1198 ft 143 kts 229°
2026-05-08 01:43 43.70820 -79.61453 1025 ft 144 kts 227°
2026-05-08 01:43 43.70131 -79.62464 831 ft 146 kts 228°
2026-05-08 01:43 43.69427 -79.63483 631 ft 147 kts 228°
2026-05-08 01:44 43.68769 -79.64439 572 ft 118 kts 227°
2026-05-08 01:44 43.68451 -79.64907 578 ft 39 kts 226°
2026-05-08 01:44 43.68230 -79.65081 577 ft 26 kts 196°
2026-05-08 01:44 43.68136 -79.65087 579 ft 9 kts 156°
2026-05-08 01:45 43.68109 -79.65046 580 ft 0 kts 103°
2026-05-08 01:45 43.68121 -79.65010 578 ft 14 kts 62°